| time (UTC) | temp C | wind direction | speed KPH | gust KPH | rain 1hr cm | rain 24hr cm | rain mn cm | humidity % | barometer mb |
| 20260904035005 | 25 | 65 | 0.0 | 3.2 | 0.00 | 4.04 | 4.04 | 97 | 1013.6 |
| 20260904034218 | 25 | 66 | 0.0 | 1.6 | 0.00 | 4.04 | 4.04 | 97 | 1013.5 |
| 20260904033214 | 25 | 0 | 0.0 | 0.0 | 0.00 | 4.04 | 4.04 | 97 | 1013.6 |
| 20260904032215 | 25 | 64 | 0.0 | 3.2 | 0.00 | 4.04 | 4.04 | 97 | 1013.7 |
| 20260904031005 | 25 | 61 | 0.0 | 1.6 | 0.00 | 4.04 | 4.04 | 96 | 1013.4 |
| 20260904030005 | 25 | 87 | 0.0 | 1.6 | 0.00 | 4.04 | 4.04 | 96 | 1013.5 |
| 20260904025004 | 25 | 85 | 0.0 | 1.6 | 0.00 | 4.04 | 4.04 | 96 | 1013.3 |
| 20260904024219 | 25 | 76 | 0.0 | 4.8 | 0.00 | 4.04 | 4.04 | 96 | 1013.4 |
| 20260904023005 | 25 | 77 | 1.6 | 4.8 | 0.00 | 4.04 | 4.04 | 95 | 1013.3 |
| 20260904022005 | 26 | 71 | 0.0 | 3.2 | 0.00 | 4.04 | 4.04 | 95 | 1013.0 |
| 20260904021005 | 26 | 73 | 1.6 | 3.2 | 0.00 | 4.04 | 4.04 | 95 | 1013.1 |
| 20260904020005 | 26 | 74 | 1.6 | 4.8 | 0.00 | 4.04 | 4.04 | 95 | 1013.0 |
| 20260904015005 | 26 | 85 | 0.0 | 4.8 | 0.00 | 4.04 | 4.04 | 95 | 1013.4 |
| 20260904014215 | 26 | 77 | 1.6 | 4.8 | 0.00 | 4.04 | 4.04 | 95 | 1012.9 |
| 20260904013005 | 26 | 74 | 1.6 | 4.8 | 0.00 | 4.04 | 4.04 | 95 | 1013.1 |
| 20260904012216 | 26 | 74 | 1.6 | 6.4 | 0.00 | 4.04 | 4.04 | 95 | 1013.1 |
| 20260904011004 | 26 | 76 | 0.0 | 4.8 | 0.00 | 4.04 | 4.04 | 95 | 1012.9 |
| 20260904010218 | 26 | 79 | 1.6 | 6.4 | 0.00 | 4.04 | 4.04 | 95 | 1012.8 |
| 20260904005005 | 26 | 75 | 1.6 | 4.8 | 0.00 | 4.04 | 4.04 | 95 | 1012.9 |
| 20260904004004 | 26 | 73 | 1.6 | 6.4 | 0.00 | 4.04 | 4.04 | 94 | 1012.8 |
| 20260904003005 | 26 | 75 | 1.6 | 4.8 | 0.00 | 4.04 | 4.04 | 94 | 1013.0 |
| 20260904002005 | 26 | 88 | 1.6 | 9.7 | 0.00 | 4.04 | 4.04 | 94 | 1012.9 |
| 20260904001005 | 26 | 74 | 0.0 | 3.2 | 0.00 | 4.04 | 4.04 | 94 | 1012.7 |
| 20260904000005 | 27 | 73 | 1.6 | 9.7 | 0.00 | 4.04 | 4.04 | 93 | 1012.7 |
| 20260903235005 | 27 | 82 | 0.0 | 3.2 | 0.00 | 4.04 | 4.04 | 94 | 1012.4 |
| 20260903234004 | 27 | 79 | 1.6 | 3.2 | 0.00 | 4.04 | 4.04 | 94 | 1012.2 |
| 20260903233005 | 27 | 70 | 1.6 | 6.4 | 0.00 | 4.04 | 4.04 | 93 | 1012.3 |
| 20260903232005 | 27 | 68 | 1.6 | 3.2 | 0.00 | 4.04 | 4.04 | 93 | 1012.0 |
| 20260903231005 | 27 | 81 | 1.6 | 4.8 | 0.00 | 4.04 | 4.04 | 92 | 1012.0 |
| 20260903230005 | 27 | 79 | 1.6 | 4.8 | 0.00 | 4.04 | 4.04 | 91 | 1012.0 |
| 20260903225005 | 28 | 70 | 1.6 | 6.4 | 0.00 | 4.04 | 4.04 | 90 | 1012.4 |
| 20260903224005 | 28 | 70 | 1.6 | 9.7 | 0.00 | 4.04 | 4.04 | 89 | 1012.3 |
| 20260903223218 | 28 | 68 | 1.6 | 6.4 | 0.00 | 4.04 | 4.04 | 89 | 1012.4 |
| 20260903222005 | 29 | 203 | 1.6 | 4.8 | 0.00 | 4.04 | 4.04 | 87 | 1012.0 |
| 20260903221214 | 30 | 261 | 0.0 | 1.6 | 0.00 | 4.04 | 4.04 | 83 | 1012.0 |
| 20260903220005 | 30 | 220 | 1.6 | 3.2 | 0.00 | 4.04 | 4.04 | 84 | 1012.0 |
| 20260903215216 | 29 | 143 | 0.0 | 3.2 | 0.00 | 4.04 | 4.04 | 87 | 1011.8 |
| 20260903214004 | 28 | 156 | 0.0 | 3.2 | 0.00 | 4.04 | 4.04 | 93 | 1011.7 |
| 20260903213005 | 28 | 85 | 0.0 | 1.6 | 0.00 | 4.04 | 4.04 | 93 | 1011.6 |
| 20260903212005 | 28 | 86 | 0.0 | 1.6 | 0.00 | 4.04 | 4.04 | 91 | 1011.3 |
| 20260903211005 | 28 | 85 | 0.0 | 1.6 | 0.00 | 4.04 | 4.04 | 91 | 1011.5 |
| 20260903210005 | 28 | 98 | 1.6 | 1.6 | 0.00 | 4.04 | 4.04 | 91 | 1011.3 |
| 20260903205005 | 28 | 98 | 1.6 | 1.6 | 0.00 | 4.04 | 4.04 | 91 | 1011.7 |
| 20260903204005 | 28 | 79 | 1.6 | 3.2 | 0.00 | 4.04 | 4.04 | 91 | 1011.7 |
| 20260903203214 | 27 | 24 | 1.6 | 3.2 | 0.00 | 4.04 | 4.04 | 93 | 1011.8 |
| 20260903202005 | 26 | 72 | 0.0 | 3.2 | 0.00 | 4.04 | 4.04 | 97 | 1012.1 |
| 20260903201004 | 26 | 83 | 1.6 | 3.2 | 0.00 | 4.09 | 4.04 | 97 | 1012.4 |
| 20260903200217 | 26 | 11 | 1.6 | 3.2 | 0.00 | 4.11 | 4.04 | 98 | 1012.4 |
| 20260903195005 | 26 | 333 | 3.2 | 6.4 | 0.00 | 4.11 | 4.04 | 98 | 1012.5 |
| 20260903194005 | 26 | 30 | 1.6 | 4.8 | 0.03 | 4.11 | 4.04 | 99 | 1012.4 |
| 20260903193005 | 26 | 358 | 0.0 | 3.2 | 0.33 | 4.80 | 4.04 | 99 | 1012.7 |
| 20260903192005 | 25 | 357 | 1.6 | 4.8 | 1.40 | 5.08 | 4.04 | 99 | 1012.7 |
| 20260903191005 | 25 | 352 | 0.0 | 3.2 | 2.87 | 5.08 | 4.04 | 99 | 1012.9 |
| 20260903190217 | 25 | 344 | 0.0 | 4.8 | 2.87 | 5.08 | 4.04 | 99 | 1012.9 |
| 20260903185005 | 25 | 356 | 1.6 | 3.2 | 2.87 | 5.08 | 4.04 | 99 | 1012.9 |
| 20260903184005 | 25 | 327 | 1.6 | 4.8 | 2.84 | 5.05 | 4.01 | 98 | 1013.0 |
| 20260903183006 | 24 | 73 | 1.6 | 4.8 | 2.54 | 4.75 | 3.71 | 97 | 1013.5 |
| 20260903182004 | 25 | 126 | 1.6 | 6.4 | 1.47 | 3.68 | 2.64 | 97 | 1013.7 |
| 20260903181005 | 27 | 67 | 1.6 | 6.4 | 0.00 | 2.21 | 1.17 | 94 | 1013.7 |
| 20260903180005 | 27 | 344 | 1.6 | 3.2 | 0.00 | 2.21 | 1.17 | 93 | 1013.1 |
| 20260903175004 | 28 | 358 | 0.0 | 3.2 | 0.00 | 2.21 | 1.17 | 91 | 1013.6 |
| 20260903174004 | 28 | 344 | 1.6 | 3.2 | 0.00 | 2.21 | 1.17 | 91 | 1013.5 |
| 20260903173216 | 28 | 298 | 0.0 | 4.8 | 0.00 | 2.21 | 1.17 | 92 | 1013.6 |
| 20260903172005 | 27 | 1 | 1.6 | 4.8 | 0.00 | 2.21 | 1.17 | 93 | 1014.0 |
| 20260903171004 | 27 | 360 | 1.6 | 3.2 | 0.00 | 2.21 | 1.17 | 93 | 1014.0 |
| 20260903170005 | 27 | 67 | 1.6 | 1.6 | 0.00 | 2.21 | 1.17 | 93 | 1014.3 |
| 20260903165005 | 27 | 67 | 0.0 | 1.6 | 0.00 | 2.21 | 1.17 | 93 | 1014.4 |
| 20260903164005 | 27 | 6 | 0.0 | 1.6 | 0.00 | 2.21 | 1.17 | 93 | 1014.5 |
| 20260903163005 | 27 | 350 | 1.6 | 4.8 | 0.08 | 2.21 | 1.17 | 95 | 1014.3 |
| 20260903162005 | 26 | 74 | 1.6 | 9.7 | 0.18 | 2.21 | 1.17 | 96 | 1014.2 |
| 20260903161005 | 26 | 338 | 1.6 | 9.7 | 0.25 | 2.21 | 1.17 | 98 | 1014.3 |
| 20260903160005 | 26 | 86 | 0.0 | 3.2 | 0.66 | 2.21 | 1.17 | 99 | 1014.7 |
| 20260903155005 | 25 | 87 | 0.0 | 3.2 | 0.71 | 2.21 | 1.17 | 99 | 1014.7 |
| 20260903154216 | 25 | 61 | 0.0 | 1.6 | 0.86 | 2.21 | 1.17 | 99 | 1014.7 |
| 20260903153217 | 25 | 91 | 0.0 | 4.8 | 0.94 | 2.16 | 1.12 | 99 | 1014.6 |
| 20260903152218 | 24 | 73 | 1.6 | 8.0 | 0.81 | 2.03 | 1.02 | 98 | 1014.9 |
| 20260903151004 | 25 | 79 | 3.2 | 9.7 | 0.74 | 1.96 | 0.91 | 98 | 1015.0 |
| 20260903150005 | 25 | 67 | 0.0 | 3.2 | 0.33 | 1.55 | 0.51 | 97 | 1014.7 |
| 20260903145216 | 26 | 74 | 0.0 | 1.6 | 0.28 | 1.50 | 0.48 | 96 | 1014.4 |
| 20260903144217 | 26 | 99 | 0.0 | 3.2 | 0.13 | 1.35 | 0.33 | 95 | 1014.2 |
| 20260903143005 | 28 | 82 | 1.6 | 4.8 | 0.00 | 1.22 | 0.18 | 93 | 1014.1 |
| 20260903142005 | 27 | 79 | 1.6 | 9.7 | 0.00 | 1.22 | 0.18 | 92 | 1014.0 |
| 20260903141004 | 28 | 89 | 1.6 | 4.8 | 0.15 | 1.22 | 0.18 | 88 | 1013.7 |
| 20260903140005 | 28 | 83 | 1.6 | 9.7 | 0.15 | 1.22 | 0.18 | 91 | 1013.8 |
| 20260903135216 | 28 | 91 | 0.0 | 3.2 | 0.15 | 1.22 | 0.18 | 91 | 1014.0 |
| 20260903134217 | 28 | 85 | 1.6 | 3.2 | 0.15 | 1.22 | 0.18 | 91 | 1013.7 |
| 20260903133005 | 28 | 47 | 0.0 | 3.2 | 0.15 | 1.22 | 0.18 | 94 | 1014.1 |
| 20260903132004 | 27 | 92 | 0.0 | 1.6 | 0.15 | 1.22 | 0.18 | 94 | 1014.2 |
| 20260903131005 | 27 | 87 | 0.0 | 3.2 | 0.00 | 1.07 | 0.03 | 93 | 1014.2 |
| 20260903130005 | 27 | 85 | 0.0 | 3.2 | 0.00 | 1.07 | 0.03 | 95 | 1014.1 |
| 20260903125005 | 26 | 97 | 0.0 | 1.6 | 0.00 | 1.07 | 0.03 | 98 | 1014.1 |
| 20260903124005 | 26 | 86 | 0.0 | 6.4 | 0.00 | 1.07 | 0.03 | 99 | 1014.0 |
| 20260903123005 | 26 | 87 | 0.0 | 1.6 | 0.03 | 1.07 | 0.03 | 99 | 1014.0 |
| 20260903122005 | 26 | 82 | 0.0 | 3.2 | 0.03 | 1.07 | 0.03 | 99 | 1013.9 |
| 20260903121005 | 26 | 0 | 0.0 | 0.0 | 0.03 | 1.07 | 0.03 | 99 | 1013.8 |
| 20260903120005 | 25 | 0 | 0.0 | 0.0 | 0.03 | 1.07 | 0.03 | 99 | 1013.8 |
| 20260903115004 | 25 | 0 | 0.0 | 0.0 | 0.03 | 1.07 | 0.03 | 99 | 1013.7 |
| 20260903114004 | 25 | 0 | 0.0 | 0.0 | 0.03 | 1.07 | 0.03 | 99 | 1013.2 |
| 20260903113005 | 24 | 0 | 0.0 | 0.0 | 0.00 | 1.04 | 0.00 | 99 | 1013.3 |
| 20260903112004 | 24 | 0 | 0.0 | 0.0 | 0.00 | 1.04 | 0.00 | 99 | 1013.0 |
| 20260903111004 | 24 | 0 | 0.0 | 0.0 | 0.00 | 1.04 | 0.00 | 99 | 1013.4 |
| 20260903110005 | 24 | 0 | 0.0 | 0.0 | 0.00 | 1.04 | 0.00 | 99 | 1013.1 |
| 20260903105004 | 24 | 0 | 0.0 | 0.0 | 0.00 | 1.04 | 0.00 | 99 | 1012.9 |
| 20260903104005 | 24 | 0 | 0.0 | 0.0 | 0.00 | 1.04 | 0.00 | 99 | 1012.8 |
| 20260903103215 | 24 | 0 | 0.0 | 0.0 | 0.00 | 1.04 | 0.00 | 99 | 1013.0 |
| 20260903102004 | 24 | 0 | 0.0 | 0.0 | 0.00 | 1.04 | 0.00 | 99 | 1012.4 |
| 20260903101005 | 24 | 0 | 0.0 | 0.0 | 0.00 | 1.04 | 0.00 | 99 | 1012.4 |
| 20260903100005 | 24 | 0 | 0.0 | 0.0 | 0.00 | 1.04 | 0.00 | 99 | 1012.5 |
| 20260903095005 | 24 | 0 | 0.0 | 0.0 | 0.00 | 1.04 | 0.00 | 99 | 1012.4 |
| 20260903094005 | 24 | 0 | 0.0 | 0.0 | 0.00 | 1.04 | 0.00 | 99 | 1012.1 |
| 20260903093004 | 24 | 0 | 0.0 | 0.0 | 0.00 | 1.04 | 0.00 | 99 | 1012.4 |
| 20260903092005 | 24 | 0 | 0.0 | 0.0 | 0.00 | 1.04 | 0.00 | 99 | 1012.2 |
| 20260903091004 | 24 | 0 | 0.0 | 0.0 | 0.00 | 1.04 | 0.00 | 99 | 1012.5 |
| 20260903090005 | 24 | 0 | 0.0 | 0.0 | 0.00 | 1.04 | 0.00 | 99 | 1012.5 |
| 20260903085005 | 24 | 0 | 0.0 | 0.0 | 0.00 | 1.04 | 0.00 | 99 | 1012.4 |
| 20260903084004 | 24 | 0 | 0.0 | 0.0 | 0.00 | 1.04 | 0.00 | 99 | 1012.2 |
| 20260903083005 | 25 | 0 | 0.0 | 0.0 | 0.00 | 1.04 | 0.00 | 99 | 1012.3 |
| 20260903082004 | 25 | 0 | 0.0 | 0.0 | 0.00 | 1.04 | 0.00 | 99 | 1012.3 |
| 20260903081004 | 25 | 0 | 0.0 | 0.0 | 0.00 | 1.04 | 0.00 | 99 | 1012.4 |
| 20260903080005 | 25 | 0 | 0.0 | 0.0 | 0.00 | 1.04 | 0.00 | 99 | 1012.2 |
| 20260903075005 | 24 | 0 | 0.0 | 0.0 | 0.00 | 1.04 | 0.00 | 99 | 1012.0 |
| 20260903074005 | 25 | 0 | 0.0 | 0.0 | 0.00 | 1.04 | 0.00 | 99 | 1012.6 |
| 20260903073005 | 25 | 0 | 0.0 | 0.0 | 0.00 | 1.04 | 0.00 | 99 | 1012.5 |
| 20260903072218 | 25 | 0 | 0.0 | 0.0 | 0.00 | 1.04 | 0.00 | 98 | 1012.7 |
| 20260903071005 | 25 | 0 | 0.0 | 0.0 | 0.00 | 1.04 | 0.00 | 98 | 1012.9 |
| 20260903070005 | 25 | 78 | 0.0 | 3.2 | 0.00 | 1.04 | 0.00 | 98 | 1013.0 |
| 20260903065005 | 25 | 0 | 0.0 | 0.0 | 0.00 | 1.04 | 0.00 | 98 | 1013.0 |
| 20260903064005 | 25 | 0 | 0.0 | 0.0 | 0.00 | 1.04 | 0.00 | 98 | 1013.2 |
| 20260903063004 | 25 | 0 | 0.0 | 0.0 | 0.00 | 1.04 | 0.00 | 98 | 1013.2 |
| 20260903062005 | 25 | 0 | 0.0 | 0.0 | 0.00 | 1.04 | 0.00 | 98 | 1013.1 |
| 20260903061005 | 25 | 83 | 0.0 | 0.0 | 0.00 | 1.04 | 0.00 | 98 | 1013.5 |
| 20260903060005 | 25 | 85 | 0.0 | 3.2 | 0.00 | 1.04 | 0.00 | 98 | 1013.5 |
| 20260903055005 | 25 | 84 | 0.0 | 1.6 | 0.00 | 1.04 | 0.00 | 97 | 1013.4 |
| 20260903054005 | 25 | 86 | 0.0 | 1.6 | 0.00 | 1.04 | 0.00 | 97 | 1013.7 |
| 20260903053005 | 25 | 80 | 1.6 | 4.8 | 0.00 | 1.04 | 0.00 | 97 | 1013.5 |
| 20260903052005 | 25 | 74 | 0.0 | 1.6 | 0.00 | 1.04 | 0.00 | 97 | 1013.7 |
| 20260903051005 | 25 | 81 | 1.6 | 4.8 | 0.00 | 1.04 | 0.00 | 97 | 1013.6 |
| 20260903050005 | 25 | 81 | 1.6 | 4.8 | 0.00 | 1.04 | 0.00 | 97 | 1013.8 |
| 20260903045004 | 25 | 73 | 1.6 | 6.4 | 0.00 | 1.04 | 0.00 | 97 | 1013.9 |
| 20260903044218 | 25 | 73 | 0.0 | 3.2 | 0.00 | 1.04 | 0.00 | 97 | 1013.7 |
| 20260903043004 | 25 | 70 | 1.6 | 6.4 | 0.00 | 1.04 | 0.00 | 97 | 1013.9 |
| 20260903042005 | 25 | 83 | 1.6 | 4.8 | 0.00 | 1.04 | 0.00 | 97 | 1013.9 |
| 20260903041215 | 25 | 78 | 1.6 | 3.2 | 0.00 | 1.04 | 0.00 | 97 | 1014.0 |
| 20260903040027 | 25 | 84 | 1.6 | 3.2 | 0.00 | 1.04 | 0.00 | 97 | 1013.7 |